Year,Month,Day,Hour,Minute,Value (Times are PST for temperature in C)
2008,03,27,01,02,4.70
2008,03,27,01,03,4.70
2008,03,27,01,04,4.70
2008,03,27,01,05,4.70
2008,03,27,01,06,4.70
2008,03,27,01,07,4.60
2008,03,27,01,08,4.60
2008,03,27,01,09,4.60
2008,03,27,01,10,4.60
2008,03,27,01,11,4.60
2008,03,27,01,12,4.70
2008,03,27,01,13,4.70
2008,03,27,01,14,4.70
2008,03,27,01,15,4.70
2008,03,27,01,16,4.70
2008,03,27,01,17,4.70
2008,03,27,01,18,4.70
2008,03,27,01,19,4.70
2008,03,27,01,20,4.70
2008,03,27,01,21,4.70
2008,03,27,01,22,4.70
2008,03,27,01,23,4.70
2008,03,27,01,24,4.70
2008,03,27,01,25,4.70
2008,03,27,01,26,4.70
2008,03,27,01,27,4.30
2008,03,27,01,28,4.30
2008,03,27,01,29,4.30
2008,03,27,01,30,4.30
2008,03,27,01,31,4.30
2008,03,27,01,32,3.90
2008,03,27,01,33,3.90
2008,03,27,01,34,3.90
2008,03,27,01,35,3.90
2008,03,27,01,36,3.90
2008,03,27,01,37,3.60
2008,03,27,01,38,3.60
2008,03,27,01,39,3.60
2008,03,27,01,41,3.30
2008,03,27,01,42,3.30
2008,03,27,01,43,3.30
2008,03,27,01,44,3.30
2008,03,27,01,45,3.30
2008,03,27,01,46,3.30
2008,03,27,01,47,3.30
2008,03,27,01,48,3.30
2008,03,27,01,49,3.30
2008,03,27,01,50,3.30
2008,03,27,01,51,3.30
2008,03,27,01,53,3.00
2008,03,27,01,54,3.00
2008,03,27,01,55,3.00
2008,03,27,01,56,3.00
2008,03,27,01,57,3.10
2008,03,27,01,58,3.10
2008,03,27,01,59,3.10
2008,03,27,02,00,3.10
2008,03,27,02,01,3.10
2008,03,27,02,02,3.20
2008,03,27,02,03,3.20
2008,03,27,02,04,3.20
2008,03,27,02,05,3.20
2008,03,27,02,06,3.40
2008,03,27,02,07,3.40
2008,03,27,02,08,3.40
2008,03,27,02,09,3.40
2008,03,27,02,10,3.40
2008,03,27,02,11,3.40
2008,03,27,02,12,3.40
2008,03,27,02,13,3.40
2008,03,27,02,14,3.40
2008,03,27,02,15,3.40
2008,03,27,02,16,3.40
2008,03,27,02,17,3.80
2008,03,27,02,18,3.80
2008,03,27,02,19,3.80
2008,03,27,02,20,3.80
2008,03,27,02,21,3.80
2008,03,27,02,22,3.90
2008,03,27,02,23,3.90
2008,03,27,02,24,3.90
2008,03,27,02,25,3.90
2008,03,27,02,26,3.90
2008,03,27,02,27,4.10
2008,03,27,02,28,4.10
2008,03,27,02,29,4.10
2008,03,27,02,30,4.10
2008,03,27,02,32,4.20
2008,03,27,02,33,4.20
2008,03,27,02,34,4.20
2008,03,27,02,35,4.20
2008,03,27,02,36,4.20
2008,03,27,02,37,4.20
2008,03,27,02,38,4.20
2008,03,27,02,39,4.20
2008,03,27,02,40,4.20
2008,03,27,02,41,4.20
2008,03,27,02,42,4.30
2008,03,27,02,43,4.30
2008,03,27,02,44,4.30
2008,03,27,02,45,4.30
2008,03,27,02,46,4.30
2008,03,27,02,47,4.40
2008,03,27,02,49,4.40
2008,03,27,02,50,4.40
2008,03,27,02,51,4.40
2008,03,27,02,52,4.50
2008,03,27,02,53,4.50
2008,03,27,02,54,4.50
2008,03,27,02,55,4.50
2008,03,27,02,56,4.40
2008,03,27,02,57,4.40
2008,03,27,02,58,4.40
2008,03,27,03,00,4.40
2008,03,27,03,01,4.40
2008,03,27,03,02,4.40
2008,03,27,03,03,4.40
2008,03,27,03,04,4.40
2008,03,27,03,05,4.40
2008,03,27,03,06,4.40
2008,03,27,03,07,4.30
2008,03,27,03,08,4.30
2008,03,27,03,09,4.30
2008,03,27,03,10,4.30
2008,03,27,03,11,4.30
2008,03,27,03,12,4.30
2008,03,27,03,13,4.30
2008,03,27,03,14,4.30
2008,03,27,03,15,4.30
2008,03,27,03,16,4.30
2008,03,27,03,17,4.20
2008,03,27,03,18,4.20
2008,03,27,03,19,4.20
2008,03,27,03,20,4.20
2008,03,27,03,21,4.30
2008,03,27,03,22,4.30
2008,03,27,03,23,4.30
2008,03,27,03,24,4.30
2008,03,27,03,25,4.30
2008,03,27,03,26,4.30
2008,03,27,03,27,4.30
2008,03,27,03,28,4.30
2008,03,27,03,29,4.30
2008,03,27,03,30,4.30
2008,03,27,03,31,4.30
2008,03,27,03,32,4.20
2008,03,27,03,33,4.20
2008,03,27,03,34,4.20
2008,03,27,03,35,4.20
2008,03,27,03,36,4.20
2008,03,27,03,37,4.20
2008,03,27,03,38,4.20
2008,03,27,03,39,4.20
2008,03,27,03,40,4.20
2008,03,27,03,41,4.20
2008,03,27,03,42,4.30
2008,03,27,03,43,4.30
2008,03,27,03,44,4.30
2008,03,27,03,45,4.30
2008,03,27,03,46,3.80
2008,03,27,03,47,3.80
2008,03,27,03,48,3.80
2008,03,27,03,49,3.80
2008,03,27,03,50,3.80
2008,03,27,03,51,3.80
2008,03,27,03,52,3.80
2008,03,27,03,53,3.80
2008,03,27,03,54,3.80
2008,03,27,03,55,3.80
2008,03,27,03,56,3.80
2008,03,27,03,57,3.40
2008,03,27,03,58,3.40
2008,03,27,03,59,3.40
2008,03,27,04,00,3.40
2008,03,27,04,01,3.40
2008,03,27,04,02,3.30
2008,03,27,04,03,3.30
2008,03,27,04,04,3.30
2008,03,27,04,05,3.30
2008,03,27,04,06,3.30
2008,03,27,04,07,3.30
2008,03,27,04,09,3.30
2008,03,27,04,10,3.30
2008,03,27,04,11,3.50
2008,03,27,04,12,3.50
2008,03,27,04,13,3.50
2008,03,27,04,14,3.50
2008,03,27,04,15,3.50
2008,03,27,04,16,3.50
2008,03,27,04,17,3.50
2008,03,27,04,18,3.50
2008,03,27,04,19,3.50
2008,03,27,04,20,3.50
2008,03,27,04,21,3.50
2008,03,27,04,22,4.10
2008,03,27,04,23,4.10
2008,03,27,04,24,4.10
2008,03,27,04,25,4.10
2008,03,27,04,26,4.10
2008,03,27,04,27,4.30
2008,03,27,04,28,4.30
2008,03,27,04,29,4.30
2008,03,27,04,30,4.30
2008,03,27,04,31,4.30
2008,03,27,04,32,4.40
2008,03,27,04,33,4.40
2008,03,27,04,34,4.40
2008,03,27,04,35,4.40
2008,03,27,04,36,4.40
2008,03,27,04,37,4.40
2008,03,27,04,38,4.40
2008,03,27,04,39,4.40
2008,03,27,04,40,4.40
2008,03,27,04,41,4.40
2008,03,27,04,42,4.40
2008,03,27,04,43,4.40
2008,03,27,04,44,4.40
2008,03,27,04,45,4.40
2008,03,27,04,46,4.40
2008,03,27,04,47,4.10
2008,03,27,04,48,4.10
2008,03,27,04,49,4.10
2008,03,27,04,50,4.10
2008,03,27,04,51,4.10
2008,03,27,04,52,3.80
2008,03,27,04,53,3.80
2008,03,27,04,54,3.80
2008,03,27,04,55,3.80
2008,03,27,04,56,3.80
2008,03,27,04,57,3.70
2008,03,27,04,58,3.70
2008,03,27,04,59,3.70
2008,03,27,05,00,3.70
2008,03,27,05,01,3.70
2008,03,27,05,02,3.70
2008,03,27,05,03,3.70
2008,03,27,05,04,3.70
2008,03,27,05,05,3.70
2008,03,27,05,06,3.70
2008,03,27,05,07,3.70
2008,03,27,05,08,3.70
2008,03,27,05,09,3.70
2008,03,27,05,10,3.70
2008,03,27,05,11,3.70
2008,03,27,05,12,3.80
2008,03,27,05,13,3.80
2008,03,27,05,14,3.80
2008,03,27,05,15,3.80
2008,03,27,05,16,3.80
2008,03,27,05,17,3.70
2008,03,27,05,18,3.70
2008,03,27,05,19,3.70
2008,03,27,05,20,3.70
2008,03,27,05,21,3.70
2008,03,27,05,22,3.20
2008,03,27,05,23,3.20
2008,03,27,05,24,3.20
2008,03,27,05,25,3.20
2008,03,27,05,26,3.20
2008,03,27,05,27,2.60
2008,03,27,05,28,2.60
2008,03,27,05,29,2.60
2008,03,27,05,30,2.60
2008,03,27,05,31,2.60
2008,03,27,05,32,2.60
2008,03,27,05,33,2.60
2008,03,27,05,34,2.60
2008,03,27,05,35,2.60
2008,03,27,05,36,2.60
2008,03,27,05,37,2.60
2008,03,27,05,38,2.30
2008,03,27,05,39,2.30
2008,03,27,05,40,2.30
2008,03,27,05,41,2.30
2008,03,27,05,42,2.30
2008,03,27,05,43,2.30
2008,03,27,05,44,2.50
2008,03,27,05,45,2.50
2008,03,27,05,46,2.50
2008,03,27,05,47,2.50
2008,03,27,05,48,2.50
2008,03,27,05,49,2.60
2008,03,27,05,50,2.60
2008,03,27,05,51,2.60
2008,03,27,05,52,2.60
2008,03,27,05,53,2.70
2008,03,27,05,54,2.70
2008,03,27,05,55,2.70
2008,03,27,05,56,2.70
2008,03,27,05,57,2.70
2008,03,27,05,58,2.70
2008,03,27,05,59,2.70
2008,03,27,06,00,2.70
2008,03,27,06,01,2.70
2008,03,27,06,02,2.70
2008,03,27,06,03,2.70
2008,03,27,06,04,3.10
2008,03,27,06,05,3.10
2008,03,27,06,06,3.10
2008,03,27,06,07,3.10
2008,03,27,06,08,3.10
2008,03,27,06,09,3.20
2008,03,27,06,10,3.20
2008,03,27,06,11,3.20
2008,03,27,06,12,3.20
2008,03,27,06,13,3.20
2008,03,27,06,14,3.40
2008,03,27,06,15,3.40
2008,03,27,06,16,3.40
2008,03,27,06,17,3.40
2008,03,27,06,18,3.40
2008,03,27,06,19,3.50
2008,03,27,06,20,3.50
2008,03,27,06,21,3.50
2008,03,27,06,22,3.50
2008,03,27,06,23,3.50
2008,03,27,06,24,3.50
2008,03,27,06,25,3.50
2008,03,27,06,26,3.50
2008,03,27,06,27,3.50
2008,03,27,06,28,3.50
2008,03,27,06,29,3.50
2008,03,27,06,30,3.70
2008,03,27,06,31,3.70
2008,03,27,06,32,3.70
2008,03,27,06,33,3.70
2008,03,27,06,34,3.70
2008,03,27,06,35,3.70
2008,03,27,06,36,3.70
2008,03,27,06,37,3.70
2008,03,27,06,38,3.70
2008,03,27,06,39,3.70
2008,03,27,06,40,3.70
2008,03,27,06,41,3.80
2008,03,27,06,42,3.80
2008,03,27,06,43,3.80
2008,03,27,06,44,3.80
2008,03,27,06,45,3.80
2008,03,27,06,46,3.80
2008,03,27,06,47,3.80
2008,03,27,06,48,3.80
2008,03,27,06,49,3.80
2008,03,27,06,50,3.80
2008,03,27,06,51,3.80
2008,03,27,06,52,3.80
2008,03,27,06,53,3.80
2008,03,27,06,54,3.80
2008,03,27,06,55,3.80
2008,03,27,06,56,3.80
2008,03,27,06,57,3.80
2008,03,27,06,58,3.80
2008,03,27,06,59,3.80
2008,03,27,07,00,3.70
2008,03,27,07,01,3.70
2008,03,27,07,02,3.70
2008,03,27,07,03,3.70
2008,03,27,07,04,3.70
2008,03,27,07,05,3.60
2008,03,27,07,06,3.60
2008,03,27,07,07,3.60
2008,03,27,07,08,3.60
2008,03,27,07,09,3.60
2008,03,27,07,10,3.60
2008,03,27,07,11,3.60
2008,03,27,07,12,3.60
2008,03,27,07,13,3.60
2008,03,27,07,14,3.60
2008,03,27,07,15,3.60
2008,03,27,07,16,3.60
2008,03,27,07,17,3.60
2008,03,27,07,18,3.60
2008,03,27,07,19,3.60
2008,03,27,07,20,3.60
2008,03,27,07,21,3.40
2008,03,27,07,22,3.40
2008,03,27,07,23,3.40
2008,03,27,07,24,3.40
2008,03,27,07,25,3.40
2008,03,27,07,26,3.40
2008,03,27,07,27,3.40
2008,03,27,07,28,3.40
2008,03,27,07,29,3.40
2008,03,27,07,30,3.40
2008,03,27,07,31,3.40
2008,03,27,07,32,3.40
2008,03,27,07,33,3.40
2008,03,27,07,34,3.40
2008,03,27,07,35,3.60
2008,03,27,07,36,3.60
2008,03,27,07,37,3.60
2008,03,27,07,38,3.60
2008,03,27,07,39,3.60
2008,03,27,07,40,3.60
2008,03,27,07,41,3.60
2008,03,27,07,42,3.60
2008,03,27,07,43,3.60
2008,03,27,07,44,3.60
2008,03,27,07,45,3.60
2008,03,27,07,46,3.60
2008,03,27,07,47,3.60
2008,03,27,07,48,3.60
2008,03,27,07,49,3.60
2008,03,27,07,50,3.60
2008,03,27,07,51,3.80
2008,03,27,07,52,3.80
2008,03,27,07,53,3.80
2008,03,27,07,54,3.80
2008,03,27,07,55,3.80
2008,03,27,07,56,3.80
2008,03,27,07,57,3.80
2008,03,27,07,58,3.80
2008,03,27,07,59,3.80
2008,03,27,08,00,3.80
2008,03,27,08,01,3.90
2008,03,27,08,02,3.90
2008,03,27,08,03,3.90
2008,03,27,08,04,3.90
2008,03,27,08,05,3.90
2008,03,27,08,06,3.90
2008,03,27,08,07,3.90
2008,03,27,08,08,3.90
2008,03,27,08,09,3.90
2008,03,27,08,10,3.90
2008,03,27,08,11,3.90
2008,03,27,08,12,3.90
2008,03,27,08,13,3.90
2008,03,27,08,14,3.90
2008,03,27,08,15,3.90
2008,03,27,08,16,3.90
2008,03,27,08,17,3.90
2008,03,27,08,18,3.20
2008,03,27,08,19,3.20
2008,03,27,08,20,3.20
2008,03,27,08,21,3.20
2008,03,27,08,22,3.20
2008,03,27,08,23,2.90
2008,03,27,08,24,2.90
2008,03,27,08,25,2.90
2008,03,27,08,26,2.90
2008,03,27,08,27,2.80
2008,03,27,08,28,2.80
2008,03,27,08,29,2.80
2008,03,27,08,30,2.80
2008,03,27,08,31,2.80
2008,03,27,08,32,2.80
2008,03,27,08,33,2.80
2008,03,27,08,34,2.80
2008,03,27,08,35,2.80
2008,03,27,08,36,2.80
2008,03,27,08,37,2.80
2008,03,27,08,38,2.90
2008,03,27,08,39,2.90
2008,03,27,08,40,2.90
2008,03,27,08,41,2.90
2008,03,27,08,42,2.90
2008,03,27,08,43,2.90
2008,03,27,08,44,2.90
2008,03,27,08,45,2.90
2008,03,27,08,46,2.90
2008,03,27,08,47,2.90
2008,03,27,08,48,3.10
2008,03,27,08,49,3.10
2008,03,27,08,50,3.10
2008,03,27,08,51,3.10
2008,03,27,08,52,3.10
2008,03,27,08,53,3.10
2008,03,27,08,54,3.10
2008,03,27,08,55,3.10
2008,03,27,08,56,3.10
2008,03,27,08,57,3.10
2008,03,27,08,58,3.10
2008,03,27,08,59,3.10
2008,03,27,09,00,3.10
2008,03,27,09,01,3.10
2008,03,27,09,02,3.10
2008,03,27,09,03,3.10
2008,03,27,09,04,3.20
2008,03,27,09,05,3.20
2008,03,27,09,06,3.20
2008,03,27,09,07,3.20
2008,03,27,09,08,3.20
2008,03,27,09,09,3.10
2008,03,27,09,10,3.10
2008,03,27,09,11,3.10
2008,03,27,09,12,3.10
2008,03,27,09,13,3.10
2008,03,27,09,14,3.10
2008,03,27,09,15,3.10
2008,03,27,09,16,3.10
2008,03,27,09,17,3.10
2008,03,27,09,18,3.00
2008,03,27,09,19,3.00
2008,03,27,09,20,3.00
2008,03,27,09,21,3.00
2008,03,27,09,22,3.00
2008,03,27,09,23,3.00
2008,03,27,09,24,3.00
2008,03,27,09,25,3.00
2008,03,27,09,26,3.00
2008,03,27,09,27,3.00
2008,03,27,09,28,3.00
2008,03,27,09,29,3.30
2008,03,27,09,30,3.30
2008,03,27,09,31,3.30
2008,03,27,09,32,3.30
2008,03,27,09,33,3.30
2008,03,27,09,34,3.30
2008,03,27,09,35,3.30
2008,03,27,09,36,3.30
2008,03,27,09,37,3.30
2008,03,27,09,38,3.30
2008,03,27,09,39,3.30
2008,03,27,09,40,3.30
2008,03,27,09,41,3.30
2008,03,27,09,42,3.30
2008,03,27,09,43,3.30
2008,03,27,09,44,3.30
2008,03,27,09,45,3.30
2008,03,27,09,46,3.30
2008,03,27,09,47,3.30
2008,03,27,09,48,3.30
2008,03,27,09,49,3.30
2008,03,27,09,50,3.30
2008,03,27,09,51,3.30
2008,03,27,09,52,3.30
2008,03,27,09,53,3.30
2008,03,27,09,54,3.30
2008,03,27,09,55,3.30
2008,03,27,09,56,2.90
2008,03,27,09,57,2.90
2008,03,27,09,58,2.90
2008,03,27,09,59,2.90
2008,03,27,10,00,2.90
2008,03,27,10,01,2.80
2008,03,27,10,02,2.80
2008,03,27,10,03,2.80
2008,03,27,10,04,2.80
2008,03,27,10,05,2.80
2008,03,27,10,06,2.40
2008,03,27,10,07,2.40
2008,03,27,10,08,2.40
2008,03,27,10,09,2.40
2008,03,27,10,10,2.40
2008,03,27,10,11,2.40
2008,03,27,10,12,2.40
2008,03,27,10,13,2.40
2008,03,27,10,14,2.40
2008,03,27,10,15,2.40
2008,03,27,10,16,2.40
2008,03,27,10,17,2.40
2008,03,27,10,18,2.40
2008,03,27,10,19,2.40
2008,03,27,10,20,2.40
2008,03,27,10,21,2.60
2008,03,27,10,22,2.60
2008,03,27,10,23,2.60
2008,03,27,10,24,2.60
2008,03,27,10,25,2.60
2008,03,27,10,26,2.70
2008,03,27,10,27,2.70
2008,03,27,10,28,2.70
2008,03,27,10,29,2.70
2008,03,27,10,30,2.70
2008,03,27,10,31,2.60
2008,03,27,10,32,2.60
2008,03,27,10,33,2.60
2008,03,27,10,34,2.60
2008,03,27,10,35,2.60
2008,03,27,10,36,2.70
2008,03,27,10,37,2.70
2008,03,27,10,38,2.70
2008,03,27,10,39,2.70
2008,03,27,10,40,2.70
2008,03,27,10,41,2.70
2008,03,27,10,42,2.70
2008,03,27,10,43,2.70
2008,03,27,10,44,2.70
2008,03,27,10,45,2.70
2008,03,27,10,46,2.70
2008,03,27,10,47,2.70
2008,03,27,10,48,2.90
2008,03,27,10,49,2.90
2008,03,27,10,50,2.90
2008,03,27,10,51,2.90
2008,03,27,10,52,2.90
2008,03,27,10,53,3.30
2008,03,27,10,54,3.30
2008,03,27,10,55,3.30
2008,03,27,10,56,3.30
2008,03,27,10,57,3.30
2008,03,27,10,58,3.80
2008,03,27,10,59,3.80
2008,03,27,11,00,3.80
2008,03,27,11,01,3.80
2008,03,27,11,02,3.90
2008,03,27,11,03,3.90
2008,03,27,11,04,3.90
2008,03,27,11,05,3.90
2008,03,27,11,06,3.90
2008,03,27,11,07,3.90
2008,03,27,11,08,3.90
2008,03,27,11,09,3.90
2008,03,27,11,10,3.90
2008,03,27,11,11,3.90
2008,03,27,11,12,3.90
2008,03,27,11,13,4.10
2008,03,27,11,14,4.10
2008,03,27,11,15,4.10
2008,03,27,11,16,4.10
2008,03,27,11,17,4.10
2008,03,27,11,18,4.30
2008,03,27,11,19,4.30
2008,03,27,11,20,4.30
2008,03,27,11,21,4.30
2008,03,27,11,22,4.30
2008,03,27,11,23,4.40
2008,03,27,11,24,4.40
2008,03,27,11,25,4.40
2008,03,27,11,26,4.40
2008,03,27,11,27,4.40
2008,03,27,11,28,4.60
2008,03,27,11,29,4.60
2008,03,27,11,30,4.60
2008,03,27,11,31,4.60
2008,03,27,11,32,4.60
2008,03,27,11,33,4.60
2008,03,27,11,34,4.60
2008,03,27,11,35,4.60
2008,03,27,11,36,4.60
2008,03,27,11,37,4.60
2008,03,27,11,38,4.60
2008,03,27,11,39,4.60
2008,03,27,11,40,4.90
2008,03,27,11,41,4.90
2008,03,27,11,42,4.90
2008,03,27,11,43,4.90
2008,03,27,11,44,4.90
2008,03,27,11,45,4.80
2008,03,27,11,46,4.80
2008,03,27,11,47,4.80
2008,03,27,11,48,4.80
2008,03,27,11,49,4.80
2008,03,27,11,50,4.70
2008,03,27,11,51,4.70
2008,03,27,11,52,4.70
2008,03,27,11,53,4.70
2008,03,27,11,54,4.90
2008,03,27,11,55,4.90
2008,03,27,11,56,4.90
2008,03,27,11,57,4.90
2008,03,27,11,58,4.90
2008,03,27,11,59,4.90
2008,03,27,12,00,4.90
2008,03,27,12,01,4.90
2008,03,27,12,02,4.90
2008,03,27,12,03,4.90
2008,03,27,12,04,4.90
2008,03,27,12,05,4.90
2008,03,27,12,06,4.80
2008,03,27,12,07,4.80
2008,03,27,12,08,4.80
2008,03,27,12,09,4.80
2008,03,27,12,10,4.80
2008,03,27,12,11,4.70
2008,03,27,12,12,4.70
2008,03,27,12,13,4.70
2008,03,27,12,14,4.70
2008,03,27,12,15,4.70
2008,03,27,12,16,4.60
2008,03,27,12,17,4.60
2008,03,27,12,18,4.60
2008,03,27,12,19,4.60
2008,03,27,12,20,4.10
2008,03,27,12,21,4.10
2008,03,27,12,22,4.10
2008,03,27,12,23,4.10
2008,03,27,12,24,4.10
2008,03,27,12,25,4.10
2008,03,27,12,26,4.10
2008,03,27,12,27,4.10
2008,03,27,12,28,4.10
2008,03,27,12,29,4.10
2008,03,27,12,30,4.10
2008,03,27,12,31,3.40
2008,03,27,12,32,3.40
2008,03,27,12,33,3.40
2008,03,27,12,34,3.40
2008,03,27,12,35,3.40
2008,03,27,12,36,3.50
2008,03,27,12,37,3.50
2008,03,27,12,38,3.50
2008,03,27,12,39,3.50
2008,03,27,12,40,3.50
2008,03,27,12,41,3.90
2008,03,27,12,42,3.90
2008,03,27,12,43,3.90
2008,03,27,12,44,3.90
2008,03,27,12,45,3.90
2008,03,27,12,46,4.10
2008,03,27,12,47,4.10
2008,03,27,12,48,4.10
2008,03,27,12,49,4.10
2008,03,27,12,50,4.10
2008,03,27,12,51,4.10
2008,03,27,12,52,4.10
2008,03,27,12,53,4.10
2008,03,27,12,54,4.10
2008,03,27,12,55,4.10
2008,03,27,12,56,4.10
2008,03,27,12,57,4.10
2008,03,27,12,58,3.40
2008,03,27,12,59,3.40
2008,03,27,13,00,3.40
2008,03,27,13,01,3.40
2008,03,27,13,02,3.40
2008,03,27,13,03,3.10
2008,03,27,13,04,3.10
2008,03,27,13,05,3.10
2008,03,27,13,06,3.10
2008,03,27,13,07,3.10
2008,03,27,13,08,2.80
2008,03,27,13,09,2.80
2008,03,27,13,10,2.80
2008,03,27,13,11,2.80
2008,03,27,13,12,2.70
2008,03,27,13,13,2.70
2008,03,27,13,14,2.70
2008,03,27,13,15,2.70
2008,03,27,13,16,2.70
2008,03,27,13,17,2.70
2008,03,27,13,18,2.70
2008,03,27,13,19,2.70
2008,03,27,13,20,2.70
2008,03,27,13,21,2.70
2008,03,27,13,22,2.70
2008,03,27,13,23,2.80
2008,03,27,13,24,2.80
2008,03,27,13,25,2.80
2008,03,27,13,26,2.80
2008,03,27,13,27,2.80
2008,03,27,13,28,2.80
2008,03,27,13,29,2.50
2008,03,27,13,30,2.50
2008,03,27,13,31,2.50
2008,03,27,13,32,2.50
2008,03,27,13,33,2.50
2008,03,27,13,34,2.60
2008,03,27,13,35,2.60
2008,03,27,13,36,2.60
2008,03,27,13,37,2.60
2008,03,27,13,38,2.60
2008,03,27,13,39,2.60
2008,03,27,13,40,2.60
2008,03,27,13,41,2.60
2008,03,27,13,42,2.60
2008,03,27,13,43,2.60
2008,03,27,13,44,2.60
2008,03,27,13,45,2.60
2008,03,27,13,46,2.60
2008,03,27,13,47,2.60
2008,03,27,13,48,2.60
2008,03,27,13,49,2.70
2008,03,27,13,50,2.70
2008,03,27,13,51,2.70
2008,03,27,13,52,2.70
2008,03,27,13,53,2.70
2008,03,27,13,54,2.40
2008,03,27,13,55,2.40
2008,03,27,13,56,2.40
2008,03,27,13,57,2.40
2008,03,27,13,58,2.40
2008,03,27,13,59,2.80
2008,03,27,14,00,2.80
2008,03,27,14,01,2.80
2008,03,27,14,02,2.80
2008,03,27,14,03,2.80
2008,03,27,14,04,3.10
2008,03,27,14,05,3.10
2008,03,27,14,06,3.10
2008,03,27,14,07,3.10
2008,03,27,14,08,3.10
2008,03,27,14,09,3.10
2008,03,27,14,10,3.10
2008,03,27,14,11,3.10
2008,03,27,14,12,3.10
2008,03,27,14,13,3.10
2008,03,27,14,14,3.10
2008,03,27,14,15,4.00
2008,03,27,14,16,4.00
2008,03,27,14,17,4.00
2008,03,27,14,18,4.00
2008,03,27,14,19,4.00
2008,03,27,14,20,4.00
2008,03,27,14,21,4.20
2008,03,27,14,22,4.20
2008,03,27,14,23,4.20
2008,03,27,14,24,4.20
2008,03,27,14,25,4.20
2008,03,27,14,26,4.30
2008,03,27,14,27,4.30
2008,03,27,14,28,4.30
2008,03,27,14,29,4.30
2008,03,27,14,30,4.40
2008,03,27,14,31,4.40
2008,03,27,14,32,4.40
2008,03,27,14,33,4.40
2008,03,27,14,34,4.40
2008,03,27,14,35,4.40
2008,03,27,14,36,4.40
2008,03,27,14,37,4.40
2008,03,27,14,38,4.40
2008,03,27,14,39,4.40
2008,03,27,14,40,4.40
2008,03,27,14,41,4.30
2008,03,27,14,42,4.30
2008,03,27,14,43,4.30
2008,03,27,14,44,4.30
2008,03,27,14,45,4.40
2008,03,27,14,46,4.40
2008,03,27,14,47,4.40
2008,03,27,14,48,4.40
2008,03,27,14,49,4.40
2008,03,27,14,50,4.40
2008,03,27,14,51,4.80
2008,03,27,14,52,4.80
2008,03,27,14,53,4.80
2008,03,27,14,54,4.80
2008,03,27,14,55,4.70
2008,03,27,14,56,4.70
2008,03,27,14,57,4.70
2008,03,27,14,58,4.70
2008,03,27,14,59,4.70
2008,03,27,15,00,4.70
2008,03,27,15,01,4.70
2008,03,27,15,02,4.70
2008,03,27,15,03,4.70
2008,03,27,15,04,4.70
2008,03,27,15,05,4.70
2008,03,27,15,06,3.90
2008,03,27,15,07,3.90
2008,03,27,15,08,3.90
2008,03,27,15,09,3.90
2008,03,27,15,10,3.90
2008,03,27,15,11,3.90
2008,03,27,15,12,3.20
2008,03,27,15,13,3.20
2008,03,27,15,14,3.20
2008,03,27,15,15,3.20
2008,03,27,15,16,3.20
2008,03,27,15,17,3.10
2008,03,27,15,18,3.10
2008,03,27,15,19,3.10
2008,03,27,15,20,3.10
2008,03,27,15,21,3.00
2008,03,27,15,22,3.00
2008,03,27,15,23,3.00
2008,03,27,15,24,3.00
2008,03,27,15,25,3.00
2008,03,27,15,26,3.00
2008,03,27,15,27,3.00
2008,03,27,15,28,3.00
2008,03,27,15,29,3.00
2008,03,27,15,30,3.00
2008,03,27,15,31,3.00
2008,03,27,15,32,3.30
2008,03,27,15,33,3.30
2008,03,27,15,34,3.30
2008,03,27,15,35,3.30
2008,03,27,15,36,3.30
2008,03,27,15,37,3.30
2008,03,27,15,38,3.40
2008,03,27,15,39,3.40
2008,03,27,15,40,3.40
2008,03,27,15,41,3.40
2008,03,27,15,42,3.40
2008,03,27,15,43,3.70
2008,03,27,15,44,3.70
2008,03,27,15,45,3.70
2008,03,27,15,46,3.70
2008,03,27,15,47,3.90
2008,03,27,15,48,3.90
2008,03,27,15,49,3.90
2008,03,27,15,50,3.90
2008,03,27,15,51,3.90
2008,03,27,15,52,3.90
2008,03,27,15,53,3.90
2008,03,27,15,54,3.90
2008,03,27,15,55,3.90
2008,03,27,15,56,3.90
2008,03,27,15,57,3.90
2008,03,27,15,58,4.50
2008,03,27,15,59,4.50
2008,03,27,16,00,4.50
2008,03,27,16,01,4.50
2008,03,27,16,02,4.50
2008,03,27,16,03,4.50
2008,03,27,16,04,4.80
2008,03,27,16,05,4.80
2008,03,27,16,06,4.80
2008,03,27,16,07,4.80
2008,03,27,16,08,4.80
2008,03,27,16,09,5.10
2008,03,27,16,10,5.10
2008,03,27,16,11,5.10
2008,03,27,16,12,5.10
2008,03,27,16,13,5.20
2008,03,27,16,14,5.20
2008,03,27,16,15,5.20
2008,03,27,16,16,5.20
2008,03,27,16,17,5.20
2008,03,27,16,18,5.20
2008,03,27,16,19,5.20
2008,03,27,16,20,5.20
2008,03,27,16,21,5.20
2008,03,27,16,22,5.20
2008,03,27,16,23,5.20
2008,03,27,16,24,5.40
2008,03,27,16,25,5.40
2008,03,27,16,26,5.40
2008,03,27,16,27,5.40
2008,03,27,16,28,5.40
2008,03,27,16,29,5.40
2008,03,27,16,30,5.00
2008,03,27,16,31,5.00
2008,03,27,16,32,5.00
2008,03,27,16,33,5.00
2008,03,27,16,34,5.00
2008,03,27,16,35,4.60
2008,03,27,16,36,4.60
2008,03,27,16,37,4.60
2008,03,27,16,38,4.60
2008,03,27,16,39,4.50
2008,03,27,16,40,4.50
2008,03,27,16,41,4.50
2008,03,27,16,42,4.50
2008,03,27,16,43,4.50
2008,03,27,16,44,4.50
2008,03,27,16,45,4.50
2008,03,27,16,46,4.50
2008,03,27,16,47,4.50
2008,03,27,16,48,4.50
2008,03,27,16,49,4.50
2008,03,27,16,51,4.60
2008,03,27,16,52,4.60
2008,03,27,16,53,4.60
2008,03,27,16,54,4.60
2008,03,27,16,55,4.60
2008,03,27,16,56,4.30
2008,03,27,16,57,4.30
2008,03,27,16,58,4.30
2008,03,27,16,59,4.30
2008,03,27,17,00,4.30
2008,03,27,17,01,4.00
2008,03,27,17,02,4.00
2008,03,27,17,03,4.00
2008,03,27,17,04,4.00
2008,03,27,17,05,3.80
2008,03,27,17,06,3.80
2008,03,27,17,07,3.80
2008,03,27,17,08,3.80
2008,03,27,17,09,3.80
2008,03,27,17,10,3.80
2008,03,27,17,11,3.80
2008,03,27,17,12,3.80
2008,03,27,17,13,3.80
2008,03,27,17,14,3.80
2008,03,27,17,15,3.80
2008,03,27,17,16,4.30
2008,03,27,17,17,4.30
2008,03,27,17,18,4.30
2008,03,27,17,19,4.30
2008,03,27,17,20,4.30
2008,03,27,17,21,4.30
2008,03,27,17,22,4.30
2008,03,27,17,23,4.30
2008,03,27,17,24,4.30
2008,03,27,17,25,4.30
2008,03,27,17,26,4.30
2008,03,27,17,27,4.30
2008,03,27,17,28,4.30
2008,03,27,17,29,4.30
2008,03,27,17,30,4.30
2008,03,27,17,31,4.40
2008,03,27,17,32,4.40
2008,03,27,17,33,4.40
2008,03,27,17,34,4.40
2008,03,27,17,35,4.40
2008,03,27,17,36,4.40
2008,03,27,17,37,4.40
2008,03,27,17,38,4.40
2008,03,27,17,39,4.40
2008,03,27,17,40,4.40
2008,03,27,17,41,4.40
2008,03,27,17,42,4.40
2008,03,27,17,43,4.80
2008,03,27,17,44,4.80
2008,03,27,17,45,4.80
2008,03,27,17,46,4.80
2008,03,27,17,47,4.80
2008,03,27,17,48,4.90
2008,03,27,17,49,4.90
2008,03,27,17,51,4.90
2008,03,27,17,52,4.90
2008,03,27,17,53,4.90
2008,03,27,17,54,4.90
2008,03,27,17,55,4.90
2008,03,27,17,56,4.90
2008,03,27,17,57,5.00
2008,03,27,17,58,5.00
2008,03,27,17,59,5.00
2008,03,27,18,00,5.00
2008,03,27,18,01,5.00
2008,03,27,18,02,5.00
2008,03,27,18,03,5.00
2008,03,27,18,04,5.00
2008,03,27,18,05,5.00
2008,03,27,18,06,5.00
2008,03,27,18,07,5.00
2008,03,27,18,08,4.90
2008,03,27,18,09,4.90
2008,03,27,18,10,4.90
2008,03,27,18,11,4.90
2008,03,27,18,12,4.90
2008,03,27,18,13,4.90
2008,03,27,18,14,4.90
2008,03,27,18,15,4.90
2008,03,27,18,16,4.90
2008,03,27,18,17,4.90
2008,03,27,18,18,4.90
2008,03,27,18,19,4.80
2008,03,27,18,20,4.80
2008,03,27,18,21,4.80
2008,03,27,18,22,4.80
2008,03,27,18,23,4.80
2008,03,27,18,24,4.80
2008,03,27,18,25,4.80
2008,03,27,18,26,4.80
2008,03,27,18,27,4.80
2008,03,27,18,29,4.80
2008,03,27,18,30,4.80
2008,03,27,18,31,4.80
2008,03,27,18,32,4.80
2008,03,27,18,33,4.80
2008,03,27,18,34,4.60
2008,03,27,18,35,4.60
2008,03,27,18,36,4.60
2008,03,27,18,37,4.60
2008,03,27,18,38,4.60
2008,03,27,18,39,4.60
2008,03,27,18,40,4.60
2008,03,27,18,41,4.60
2008,03,27,18,42,4.60
2008,03,27,18,43,4.60
2008,03,27,18,44,4.60
2008,03,27,18,45,4.40
2008,03,27,18,46,4.40
2008,03,27,18,47,4.40
2008,03,27,18,48,4.40
2008,03,27,18,49,4.40
2008,03,27,18,50,4.40
2008,03,27,18,51,4.40
2008,03,27,18,52,4.40
2008,03,27,18,53,4.40
2008,03,27,18,54,4.40
2008,03,27,18,55,4.40
2008,03,27,18,56,4.40
2008,03,27,18,57,4.40
2008,03,27,18,58,4.40
2008,03,27,18,59,4.40
2008,03,27,19,01,4.50
2008,03,27,19,02,4.50
2008,03,27,19,03,4.50
2008,03,27,19,04,4.50
2008,03,27,19,05,4.50
2008,03,27,19,06,4.60
2008,03,27,19,07,4.60
2008,03,27,19,08,4.60
2008,03,27,19,09,4.60
2008,03,27,19,10,4.60
2008,03,27,19,11,4.60
2008,03,27,19,12,4.60
2008,03,27,19,13,4.60
2008,03,27,19,14,4.60
2008,03,27,19,15,4.60
2008,03,27,19,16,4.60
2008,03,27,19,17,4.60
2008,03,27,19,19,4.60